DW6344 Weather Reports


Display with metric or nautical units.
time (UTC)temp
F
wind
direction
speed
MPH
gust
MPH
rain 1hr
in
rain 24hr
in
rain mn
in
humidity
%
barometer
mb
20260503021346 51 94 0.0 0.0 0.00 0.00 0.00 75 1010.4
20260503020844 51 94 0.0 0.0 0.00 0.00 0.00 75 1010.4
20260503020331 51 94 0.0 0.0 0.00 0.00 0.00 73 1010.5
20260503015842 52 94 0.0 0.0 0.00 0.00 0.00 73 1010.4
20260503015335 52 94 0.0 0.0 0.00 0.00 0.00 73 1010.4
20260503014841 52 94 0.0 0.0 0.00 0.00 0.00 74 1010.4
20260503014355 52 94 0.0 0.0 0.00 0.00 0.00 73 1010.3
20260503013850 52 94 0.0 0.0 0.00 0.00 0.00 72 1010.3
20260503013400 52 94 0.0 0.0 0.00 0.00 0.00 71 1010.3
20260503012831 52 94 0.0 0.0 0.00 0.00 0.00 71 1010.3
20260503012330 53 94 0.0 0.0 0.00 0.00 0.00 70 1010.4
20260503011853 53 94 0.0 0.0 0.00 0.00 0.00 70 1010.3
20260503011350 53 94 0.0 0.0 0.00 0.00 0.00 69 1010.2
20260503010854 53 94 0.0 0.0 0.00 0.00 0.00 68 1010.1
20260503010328 53 94 0.0 0.0 0.00 0.00 0.00 68 1010.0
20260503005828 53 94 0.0 0.0 0.00 0.00 0.00 67 1010.1
20260503005327 54 94 0.0 0.0 0.00 0.00 0.00 67 1010.0
20260503004847 54 94 0.0 0.0 0.00 0.00 0.00 66 1010.0
20260503004346 54 94 0.0 0.0 0.00 0.00 0.00 65 1009.9
20260503003839 54 94 0.0 0.0 0.00 0.00 0.00 64 1010.0
20260503003331 54 94 0.0 0.0 0.00 0.00 0.00 65 1009.7
20260503002834 54 94 0.0 0.0 0.00 0.00 0.00 63 1009.7
20260503002328 55 94 0.0 0.0 0.00 0.00 0.00 62 1009.8
20260503001847 55 94 0.0 0.0 0.00 0.00 0.00 61 1009.6
20260503001335 55 94 0.0 0.0 0.00 0.00 0.00 61 1009.5
20260503000900 55 94 0.0 0.0 0.00 0.00 0.00 62 1009.4
20260503000355 56 94 0.0 0.0 0.00 0.00 0.00 60 1009.5
20260502235834 56 94 0.0 0.0 0.00 0.00 0.00 58 1009.3
20260502235333 56 94 0.0 0.0 0.00 0.00 0.00 58 1009.3
20260502234843 56 94 0.0 0.0 0.00 0.00 0.00 57 1009.3
20260502234359 56 94 0.0 0.0 0.00 0.00 0.00 57 1009.2
20260502233843 57 94 0.0 0.0 0.00 0.00 0.00 54 1009.2
20260502233340 57 94 0.0 0.0 0.00 0.00 0.00 54 1009.1
20260502232854 57 94 0.0 0.0 0.00 0.00 0.00 53 1009.1
20260502232329 57 94 0.0 0.0 0.00 0.00 0.00 52 1009.1
20260502231833 58 94 0.0 0.0 0.00 0.00 0.00 51 1009.0
20260502231402 58 94 0.0 1.0 0.00 0.00 0.00 51 1008.8
20260502230842 58 94 0.0 1.0 0.00 0.00 0.00 48 1008.9
20260502230343 58 94 0.0 1.0 0.00 0.00 0.00 51 1008.8
20260502225843 58 94 0.0 2.0 0.00 0.00 0.00 50 1008.8
20260502225338 59 94 0.0 2.0 0.00 0.00 0.00 49 1009.0
20260502224834 59 88 0.0 0.0 0.00 0.00 0.00 46 1009.0
20260502224333 59 89 0.0 1.0 0.00 0.00 0.00 48 1009.0
20260502223832 59 88 0.0 1.0 0.00 0.00 0.00 44 1008.9
20260502223401 59 88 0.0 1.0 0.00 0.00 0.00 46 1009.0
20260502222833 59 90 0.0 0.0 0.00 0.00 0.00 45 1009.0
20260502222336 59 90 0.0 1.0 0.00 0.00 0.00 44 1009.0
20260502221853 59 90 0.0 3.0 0.00 0.00 0.00 42 1009.0
20260502221348 59 84 0.0 3.0 0.00 0.00 0.00 41 1009.1
20260502220848 59 22 0.0 2.0 0.00 0.00 0.00 44 1009.0
20260502215842 60 328 0.0 2.0 0.00 0.00 0.00 41 1009.1
20260502215345 60 346 0.0 1.0 0.00 0.00 0.00 43 1009.1
20260502214836 60 346 0.0 1.0 0.00 0.00 0.00 43 1009.0
20260502214338 60 346 0.0 2.0 0.00 0.00 0.00 45 1009.0
20260502213831 60 277 0.0 2.0 0.00 0.00 0.00 43 1008.9
20260502213329 60 269 1.0 2.0 0.00 0.00 0.00 42 1009.0
20260502212830 60 263 1.0 2.0 0.00 0.00 0.00 43 1008.9
20260502212334 60 338 1.0 3.0 0.00 0.00 0.00 41 1008.9
20260502211853 60 344 0.0 3.0 0.00 0.00 0.00 44 1009.0
20260502211347 60 284 1.0 2.0 0.00 0.00 0.00 40 1008.9
20260502210842 60 284 0.0 3.0 0.00 0.00 0.00 41 1008.8
20260502210342 61 286 1.0 3.0 0.00 0.00 0.00 40 1008.8
20260502205855 61 339 1.0 2.0 0.00 0.00 0.00 40 1008.8
20260502205356 61 194 1.0 2.0 0.00 0.00 0.00 41 1008.7
20260502204835 61 171 0.0 4.0 0.00 0.00 0.00 45 1008.6
20260502204339 61 172 2.0 4.0 0.00 0.00 0.00 40 1008.6
20260502203842 61 168 0.0 1.0 0.00 0.00 0.00 47 1008.7
20260502203338 61 168 0.0 2.0 0.00 0.00 0.00 45 1008.8
20260502202834 62 168 0.0 2.0 0.00 0.00 0.00 40 1008.9
20260502202339 62 171 0.0 3.0 0.00 0.00 0.00 41 1008.9
20260502201855 62 196 0.0 3.0 0.00 0.00 0.00 39 1008.8
20260502201338 62 91 1.0 2.0 0.00 0.00 0.00 40 1008.9
20260502200839 62 275 1.0 3.0 0.00 0.00 0.00 40 1009.0
20260502200338 62 236 1.0 3.0 0.00 0.00 0.00 44 1009.0
20260502195837 61 184 0.0 3.0 0.00 0.00 0.00 40 1009.0
20260502195348 61 182 1.0 3.0 0.00 0.00 0.00 41 1009.1
20260502194843 61 121 0.0 2.0 0.00 0.00 0.00 44 1009.1
20260502194353 61 153 0.0 3.0 0.00 0.00 0.00 43 1009.2
20260502193836 61 350 1.0 2.0 0.00 0.00 0.00 41 1009.2
20260502193340 61 345 1.0 3.0 0.00 0.00 0.00 41 1009.4
20260502192839 61 290 1.0 4.0 0.00 0.00 0.00 40 1009.3
20260502192339 61 316 1.0 4.0 0.00 0.00 0.00 39 1009.3
20260502191833 62 54 1.0 2.0 0.00 0.00 0.00 42 1009.4
20260502191331 62 253 0.0 2.0 0.00 0.00 0.00 42 1009.6
20260502190830 62 264 1.0 4.0 0.00 0.00 0.00 42 1009.8
20260502190332 62 293 2.0 4.0 0.00 0.00 0.00 42 1009.8
20260502185855 62 316 0.0 2.0 0.00 0.00 0.00 46 1009.7
20260502185353 62 235 1.0 3.0 0.00 0.00 0.00 42 1009.5
20260502184843 62 254 1.0 3.0 0.00 0.00 0.00 45 1009.4
20260502184356 62 346 1.0 3.0 0.00 0.00 0.00 43 1009.6
20260502183858 62 28 1.0 3.0 0.00 0.00 0.00 44 1009.7
20260502183345 62 169 1.0 3.0 0.00 0.00 0.00 44 1009.7
20260502182832 61 298 1.0 3.0 0.00 0.00 0.00 42 1009.9
20260502182335 61 47 1.0 3.0 0.00 0.00 0.00 43 1010.0
20260502181840 61 280 1.0 3.0 0.00 0.00 0.00 44 1010.2
20260502181340 61 234 0.0 2.0 0.00 0.00 0.00 46 1010.0
20260502180829 60 236 1.0 4.0 0.00 0.00 0.00 41 1009.9
20260502180326 61 277 2.0 4.0 0.00 0.00 0.00 39 1010.1
20260502170409 59 101 1.0 2.0 0.00 0.00 0.00 47 1011.1
20260502164339 59 5 1.0 4.0 0.00 0.00 0.00 52 1011.0
20260502163841 59 314 1.0 4.0 0.00 0.00 0.00 51 1011.0
20260502163353 59 90 0.0 2.0 0.00 0.00 0.00 51 1011.1
20260502162848 59 97 0.0 2.0 0.00 0.00 0.00 51 1011.1
20260502162329 59 88 1.0 5.0 0.00 0.00 0.00 50 1011.2
20260502161854 58 63 1.0 5.0 0.00 0.00 0.00 52 1011.2
20260502161329 59 218 1.0 4.0 0.00 0.00 0.00 51 1011.1
20260502160830 59 271 1.0 3.0 0.00 0.00 0.00 51 1011.1
20260502160347 59 155 1.0 2.0 0.00 0.00 0.00 51 1011.3
20260502151847 58 48 0.0 2.0 0.00 0.00 0.00 58 1011.4
20260502151401 58 180 1.0 2.0 0.00 0.00 0.00 58 1011.5
20260502150840 58 181 0.0 4.0 0.00 0.00 0.00 60 1011.6
20260502150331 57 183 1.0 4.0 0.00 0.00 0.00 57 1011.6
20260502130347 56 316 1.0 3.0 0.00 0.00 0.00 66 1010.8
20260502123336 56 159 1.0 3.0 0.00 0.00 0.00 69 1010.7
20260502122832 56 15 0.0 2.0 0.00 0.00 0.00 69 1010.6
20260502122401 55 202 0.0 2.0 0.00 0.00 0.00 71 1010.7
20260502121846 55 173 0.0 2.0 0.00 0.00 0.00 71 1010.8
20260502121344 55 20 0.0 2.0 0.00 0.00 0.00 71 1010.8
20260502120830 55 338 0.0 2.0 0.00 0.00 0.00 72 1010.8
20260502120356 55 338 0.0 2.0 0.00 0.00 0.00 72 1010.7
20260502115849 55 79 0.0 1.0 0.00 0.00 0.00 72 1010.7
20260502115407 55 91 0.0 1.0 0.00 0.00 0.00 73 1010.6
20260502114852 55 148 0.0 1.0 0.00 0.00 0.00 74 1010.8
20260502114350 54 146 0.0 1.0 0.00 0.00 0.00 75 1010.8
20260502113849 54 144 0.0 1.0 0.00 0.00 0.00 75 1010.7
20260502113341 54 144 0.0 1.0 0.00 0.00 0.00 76 1010.8
20260502112843 54 144 0.0 0.0 0.00 0.00 0.00 77 1010.8
20260502112419 54 144 0.0 1.0 0.00 0.00 0.00 77 1010.9
20260502111837 54 144 0.0 1.0 0.00 0.00 0.00 78 1010.9
20260502111340 54 144 0.0 0.0 0.00 0.00 0.00 79 1010.9
20260502110925 54 144 0.0 0.0 0.00 0.00 0.00 79 1010.9
20260502110404 53 144 0.0 0.0 0.00 0.00 0.00 80 1010.8
20260502105847 53 144 0.0 0.0 0.00 0.00 0.00 80 1010.8
20260502105342 53 143 0.0 1.0 0.00 0.00 0.00 81 1010.7
20260502104847 53 143 0.0 0.0 0.00 0.00 0.00 81 1010.4
20260502104333 53 342 0.0 0.0 0.00 0.00 0.00 81 1010.3
20260502103837 53 344 0.0 0.0 0.00 0.00 0.00 81 1010.2
20260502103407 53 340 0.0 1.0 0.00 0.00 0.00 81 1010.1
20260502102837 53 71 0.0 1.0 0.00 0.00 0.00 82 1010.0
20260502102336 53 71 0.0 1.0 0.00 0.00 0.00 82 1010.0
20260502101857 53 71 0.0 0.0 0.00 0.00 0.00 82 1010.1
20260502101405 53 71 0.0 0.0 0.00 0.00 0.00 83 1010.0
20260502100843 53 71 0.0 0.0 0.00 0.00 0.00 83 1010.1
20260502100401 53 71 0.0 0.0 0.00 0.00 0.00 83 1010.2
20260502091335 53 71 0.0 0.0 0.00 0.00 0.00 84 1009.8
20260502090837 53 71 0.0 0.0 0.00 0.00 0.00 84 1009.8
20260502090424 53 71 0.0 0.0 0.00 0.00 0.00 84 1009.7
20260502071352 52 71 0.0 0.0 0.00 0.00 0.00 85 1009.2
20260502070901 52 71 0.0 0.0 0.00 0.00 0.00 85 1009.2
20260502070351 52 71 0.0 0.0 0.00 0.00 0.00 84 1009.1
20260502065843 52 71 0.0 0.0 0.00 0.00 0.00 84 1009.0
20260502065401 52 71 0.0 0.0 0.00 0.00 0.00 84 1009.0
20260502064839 52 71 0.0 0.0 0.00 0.00 0.00 84 1009.1
20260502064333 52 71 0.0 0.0 0.00 0.00 0.00 84 1009.1
20260502063842 52 71 0.0 0.0 0.00 0.00 0.00 83 1009.2
20260502063335 52 71 0.0 0.0 0.00 0.00 0.00 83 1009.3
20260502062830 52 71 0.0 0.0 0.00 0.00 0.00 82 1009.5
20260502062325 53 71 0.0 0.0 0.00 0.00 0.00 82 1009.5
20260502061901 53 71 0.0 0.0 0.00 0.00 0.00 82 1009.6
20260502061352 53 71 0.0 0.0 0.00 0.00 0.00 82 1009.8
20260502060840 53 71 0.0 0.0 0.00 0.00 0.00 81 1009.9
20260502060332 53 71 0.0 0.0 0.00 0.00 0.00 81 1009.9
20260502055828 53 71 0.0 0.0 0.00 0.00 0.00 81 1010.0
20260502055336 54 71 0.0 0.0 0.00 0.00 0.00 81 1010.1
20260502054853 54 71 0.0 0.0 0.00 0.00 0.00 80 1010.1
20260502054333 54 71 0.0 0.0 0.00 0.00 0.00 80 1010.0
20260502053849 54 71 0.0 0.0 0.00 0.00 0.00 79 1010.1
20260502053353 54 71 0.0 0.0 0.00 0.00 0.00 79 1010.2
20260502052829 54 71 0.0 0.0 0.00 0.00 0.00 79 1010.2
20260502052329 55 71 0.0 0.0 0.00 0.00 0.00 78 1010.2
20260502051903 55 71 0.0 0.0 0.00 0.00 0.00 78 1010.3
20260502051336 55 71 0.0 1.0 0.00 0.00 0.00 78 1010.3
20260502050842 55 71 0.0 1.0 0.00 0.00 0.00 78 1010.2
20260502050347 55 71 0.0 0.0 0.00 0.00 0.00 77 1010.4
20260502045852 55 71 0.0 0.0 0.00 0.00 0.00 77 1010.4
20260502045401 55 71 0.0 0.0 0.00 0.00 0.00 76 1010.4
20260502044837 55 71 0.0 0.0 0.00 0.00 0.00 76 1010.4
20260502044339 56 71 0.0 1.0 0.00 0.00 0.00 76 1010.4
20260502043836 56 71 0.0 1.0 0.00 0.00 0.00 76 1010.5
20260502043336 56 71 0.0 0.0 0.00 0.00 0.00 75 1010.6
20260502042839 56 71 0.0 0.0 0.00 0.00 0.00 75 1010.6
20260502042353 56 71 0.0 0.0 0.00 0.00 0.00 75 1010.6
20260502041849 56 71 0.0 1.0 0.00 0.00 0.00 74 1010.6
20260502041332 56 71 0.0 1.0 0.00 0.00 0.00 74 1010.7
20260502040835 56 71 0.0 2.0 0.00 0.00 0.00 74 1010.6
20260502040343 56 71 0.0 2.0 0.00 0.00 0.00 73 1010.7
20260502035852 57 71 0.0 2.0 0.00 0.00 0.00 73 1010.7
20260502035334 57 71 0.0 2.0 0.00 0.00 0.00 72 1010.7
20260502034849 57 71 1.0 4.0 0.00 0.00 0.00 72 1010.8
20260502034352 57 110 0.0 3.0 0.00 0.00 0.00 72 1010.8
20260502033848 57 86 0.0 3.0 0.00 0.00 0.00 72 1010.8
20260502033404 57 84 0.0 3.0 0.00 0.00 0.00 72 1010.7
20260502032912 57 84 1.0 3.0 0.00 0.00 0.00 72 1010.5
20260502032358 57 19 0.0 3.0 0.00 0.00 0.00 72 1010.3
20260502031859 57 19 1.0 3.0 0.00 0.00 0.00 71 1010.2
20260502031334 57 49 0.0 4.0 0.00 0.00 0.00 71 1010.3
20260502030842 57 49 1.0 4.0 0.00 0.00 0.00 71 1010.2
20260502030348 57 96 0.0 3.0 0.00 0.00 0.00 71 1010.2
20260502025859 57 5 0.0 2.0 0.00 0.00 0.00 71 1010.1
20260502025358 57 360 0.0 2.0 0.00 0.00 0.00 70 1010.2
20260502024830 58 52 0.0 2.0 0.00 0.00 0.00 70 1010.3
20260502024346 58 55 1.0 2.0 0.00 0.00 0.00 70 1010.3
20260502023844 58 42 0.0 4.0 0.00 0.00 0.00 69 1010.3
20260502023348 58 49 1.0 3.0 0.00 0.00 0.00 69 1010.4
20260502022848 58 61 0.0 3.0 0.00 0.00 0.00 69 1010.4
20260502022351 58 59 0.0 3.0 0.00 0.00 0.00 68 1010.4